Back to catalog

COSMOS 1030 DEB

AliveHEO
NORAD 39447·DEBRIS·🇷🇺 Russia

Launched Sep 6, 1978 from Plesetsk Cosmodrome

Loading…

Next Passes (next 24 hours)

TLE

FreshSource: Space-Track

Epoch: Sep 12, 2026, 10:50 UTC

1 39447U 78083T   26255.45151599  .00000780  00000-0  00000-0 0  9997
2 39447  63.7541 179.0755 7042164   4.2188 359.4066  2.00343104 84491

Track COSMOS 1030 DEB in real time with AllMySat

Download on the App Store